Вернуться в каталог

STARLINK-33904

АктивенСвязьVLEO
NORAD 63887·PAYLOAD·🇺🇸 United States

Запущен May 10, 2025 с Vandenberg Space Force Base

Loading…

Ближайшие Пролёты (ближайшие 24 часа)

TLE

СвежийSource: CelesTrak SupGP

Эпоха: Sep 14, 2026, 20:49 UTC

1 63887C 25094Z   26257.86784722 -.00021399  00000+0 -72583-3 0  2578
2 63887  69.9989 115.9728 0003506 282.3124 228.7398 15.30408924    19

Отслеживайте STARLINK-33904 в реальном времени с AllMySat

Download on the App Store